Faribault, MN

5:00 PM CDT on March 26, 2017 (GMT -0500)
Faribault Municipal

Weather History for KFBL - April, 2013

Change the Weather History Date:

Thursday, April 18, 2013

  Actual Average Record
Temperature  
Mean Temperature 32 °F -  
Max Temperature 35 °F 59 °F 89 °F (2002)
Min Temperature 30 °F 35 °F 12 °F (1983)
Degree Days  
Heating Degree Days 32    
Moisture  
Dew Point 32 °F    
Average Humidity 100    
Maximum Humidity 100    
Minimum Humidity 100    
Precipitation  
Precipitation 0.00 in - - ()
Sea Level Pressure  
Sea Level Pressure 29.65 in    
Wind  
Wind Speed 12 mph (NNW)    
Max Wind Speed 20 mph    
Max Gust Speed 26 mph    
Visibility 4 miles    
Events      
Averages and records for this station are not official NWS values.
T = Trace of Precipitation, MM = Missing Value Source: NWS Daily Summary

Daily Weather History Graph

Daily Weather History Graph

Search for Another Location

Airport or City:

Trip Planner

Search our weather history database for the weather conditions in past years. The results will help you decide how hot, cold, wet, or windy it might be!

Date:

Astronomy

Apr. 18, 2013 Rise Set
Actual Time 6:24 AM CDT 8:01 PM CDT
Civil Twilight 5:53 AM CDT 8:32 PM CDT
Nautical Twilight 5:16 AM CDT 9:09 PM CDT
Astronomical Twilight 4:36 AM CDT 9:49 PM CDT
Moon 12:33 PM CDT (4/18) 2:19 AM CDT (4/18)
Length of Visible Light 14h 38m
Length of Day
13h 37m
First Quarter, 52% of the Moon is Illuminated
Apr 18
First Quarter
Apr 25
Full
May 2
Last Quarter
May 9
New
May 17
First Quarter

Hourly Weather History & Observations

Time (CDT) Temp. Windchill Dew Point Humidity Pressure Visibility Wind Dir Wind Speed Gust Speed Precip Events Conditions
12:01 AM 35.6 °F 28.6 °F 35.6 °F 100% 29.88 in 3.0 mi North 9.2 mph - N/A   Overcast
12:21 AM 35.6 °F 28.6 °F 35.6 °F 100% 29.88 in 4.0 mi North 9.2 mph 16.1 mph N/A   Overcast
12:41 AM 35.6 °F 28.0 °F 35.6 °F 100% 29.87 in 4.0 mi North 10.4 mph - N/A   Overcast
1:01 AM 35.6 °F 27.5 °F 35.6 °F 100% 29.84 in 5.0 mi North 11.5 mph 19.6 mph N/A   Overcast
1:21 AM 33.8 °F 24.8 °F 33.8 °F 100% 29.83 in 5.0 mi North 12.7 mph 18.4 mph N/A   Overcast
1:41 AM 33.8 °F 24.3 °F 33.8 °F 100% 29.82 in 4.0 mi North 13.8 mph 19.6 mph N/A   Overcast
2:01 AM 33.8 °F 24.8 °F 33.8 °F 100% 29.80 in 7.0 mi North 12.7 mph 18.4 mph N/A   Overcast
2:21 AM 33.8 °F 23.9 °F 33.8 °F 100% 29.79 in 7.0 mi North 15.0 mph 19.6 mph N/A   Overcast
2:41 AM 33.8 °F 24.3 °F 33.8 °F 100% 29.78 in 4.0 mi North 13.8 mph 19.6 mph N/A   Overcast
3:01 AM 33.8 °F 25.3 °F 33.8 °F 100% 29.79 in 4.0 mi North 11.5 mph 18.4 mph N/A   Overcast
3:21 AM 33.8 °F 25.3 °F 33.8 °F 100% 29.80 in 4.0 mi North 11.5 mph 17.3 mph N/A   Overcast
3:41 AM 33.8 °F 25.8 °F 33.8 °F 100% 29.79 in 4.0 mi NNE 10.4 mph - N/A   Overcast
4:01 AM 33.8 °F 25.8 °F 33.8 °F 100% 29.79 in 4.0 mi North 10.4 mph - N/A   Overcast
4:21 AM 33.8 °F 25.8 °F 33.8 °F 100% 29.77 in 4.0 mi North 10.4 mph - N/A   Overcast
4:41 AM 33.8 °F 24.8 °F 33.8 °F 100% 29.79 in 4.0 mi NNW 12.7 mph - N/A   Overcast
5:01 AM 33.8 °F 25.3 °F 33.8 °F 100% 29.79 in 5.0 mi NNW 11.5 mph 16.1 mph N/A   Overcast
5:21 AM 32.0 °F 23.0 °F 32.0 °F 100% 29.78 in 5.0 mi NNW 11.5 mph 16.1 mph N/A   Overcast
5:41 AM 32.0 °F 24.2 °F 32.0 °F 100% 29.76 in 4.0 mi North 9.2 mph - N/A   Overcast
6:01 AM 32.0 °F 23.6 °F 32.0 °F 100% 29.75 in 4.0 mi North 10.4 mph 19.6 mph N/A   Overcast
6:21 AM 32.0 °F 24.2 °F 32.0 °F 100% 29.74 in 10.0 mi North 9.2 mph 18.4 mph N/A   Overcast
6:41 AM 32.0 °F 20.8 °F 32.0 °F 100% 29.70 in 10.0 mi North 17.3 mph 21.9 mph N/A   Overcast
7:01 AM 32.0 °F 23.0 °F 32.0 °F 100% 29.72 in 10.0 mi North 11.5 mph 16.1 mph N/A   Overcast
7:21 AM 32.0 °F 22.5 °F 32.0 °F 100% 29.70 in 10.0 mi North 12.7 mph 19.6 mph N/A   Overcast
7:41 AM 32.0 °F 22.5 °F 32.0 °F 100% 29.73 in 10.0 mi North 12.7 mph 18.4 mph N/A   Overcast
8:01 AM 32.0 °F 23.0 °F 32.0 °F 100% 29.70 in 10.0 mi North 11.5 mph 18.4 mph N/A   Overcast
8:21 AM 32.0 °F 22.5 °F 32.0 °F 100% 29.69 in 10.0 mi North 12.7 mph 19.6 mph N/A   Overcast
8:41 AM 32.0 °F 21.6 °F 32.0 °F 100% 29.65 in 10.0 mi North 15.0 mph - N/A   Overcast
9:01 AM 32.0 °F 21.6 °F 32.0 °F 100% 29.64 in 10.0 mi North 15.0 mph 20.7 mph N/A   Overcast
9:21 AM 32.0 °F 23.0 °F 32.0 °F 100% 29.68 in 10.0 mi North 11.5 mph 20.7 mph N/A   Overcast
9:41 AM 30.2 °F 19.3 °F 30.2 °F 100% 29.65 in 10.0 mi North 15.0 mph 21.9 mph N/A   Overcast
10:01 AM 30.2 °F 23.4 °F 30.2 °F 100% 29.68 in 10.0 mi North 6.9 mph - N/A   Overcast
10:21 AM 30.2 °F 21.9 °F 30.2 °F 100% 29.67 in 2.5 mi North 9.2 mph - N/A   Overcast
10:41 AM 30.2 °F 20.2 °F 30.2 °F 100% 29.63 in 2.5 mi North 12.7 mph 16.1 mph N/A   Overcast
11:01 AM 30.2 °F 21.3 °F 30.2 °F 100% 29.64 in 3.0 mi North 10.4 mph 18.4 mph N/A   Overcast
11:21 AM 30.2 °F 20.2 °F 30.2 °F 100% 29.59 in 3.0 mi North 12.7 mph 20.7 mph N/A   Overcast
11:41 AM 30.2 °F 21.9 °F 30.2 °F 100% 29.62 in 3.0 mi NNW 9.2 mph 20.7 mph N/A   Overcast
12:01 PM 32.0 °F 23.6 °F 32.0 °F 100% 29.61 in 1.2 mi North 10.4 mph - N/A   Overcast
12:21 PM 32.0 °F 24.8 °F 32.0 °F 100% 29.62 in 1.8 mi NNW 8.1 mph - N/A   Overcast
12:41 PM 32.0 °F 24.8 °F 32.0 °F 100% 29.61 in 1.8 mi NNW 8.1 mph - N/A   Overcast
1:01 PM 32.0 °F 23.6 °F 32.0 °F 100% 29.57 in 1.2 mi North 10.4 mph - N/A   Overcast
1:21 PM 32.0 °F 24.8 °F 32.0 °F 100% 29.57 in 1.5 mi NNW 8.1 mph - N/A   Overcast
1:41 PM 32.0 °F 26.4 °F 32.0 °F 100% 29.59 in 0.8 mi NNW 5.8 mph - N/A   Overcast
2:01 PM 30.2 °F 20.2 °F 30.2 °F 100% 29.54 in 1.2 mi North 12.7 mph 17.3 mph N/A   Overcast
2:41 PM 30.2 °F 21.3 °F 30.2 °F 100% 29.54 in 1.0 mi NNW 10.4 mph - N/A   Overcast
3:01 PM 30.2 °F 21.3 °F 30.2 °F 100% 29.55 in 1.0 mi NNW 10.4 mph - N/A   Overcast
3:39 PM 30.2 °F 21.3 °F 30.2 °F 100% 29.55 in 0.5 mi NNW 10.4 mph - N/A   Overcast
3:54 PM 30.2 °F 21.9 °F 30.2 °F 100% 29.53 in 0.5 mi NNW 9.2 mph - N/A   Overcast
4:01 PM 30.2 °F 21.9 °F 30.2 °F 100% 29.53 in 0.8 mi NNW 9.2 mph - N/A   Overcast
4:21 PM 30.2 °F 21.9 °F 30.2 °F 100% 29.51 in 0.8 mi NNW 9.2 mph - N/A   Overcast
4:41 PM 30.2 °F 21.9 °F 30.2 °F 100% 29.51 in 1.0 mi NNW 9.2 mph - N/A   Overcast
5:01 PM 30.2 °F 21.3 °F 30.2 °F 100% 29.49 in 1.0 mi NNW 10.4 mph 17.3 mph N/A   Overcast
5:21 PM 30.2 °F 22.6 °F 30.2 °F 100% 29.50 in 1.0 mi NNW 8.1 mph - N/A   Overcast
5:41 PM 30.2 °F 19.8 °F 30.2 °F 100% 29.50 in 1.0 mi NNW 13.8 mph - N/A   Overcast
6:21 PM 30.2 °F 20.8 °F 30.2 °F 100% 29.50 in 0.8 mi NNW 11.5 mph - N/A   Overcast
7:01 PM 30.2 °F 21.9 °F 30.2 °F 100% 29.51 in 0.8 mi NW 9.2 mph 20.7 mph N/A   Overcast
7:21 PM 30.2 °F 20.2 °F 30.2 °F 100% 29.52 in 0.8 mi NW 12.7 mph 17.3 mph N/A   Overcast
7:41 PM 30.2 °F 20.2 °F 30.2 °F 100% 29.52 in 1.2 mi NW 12.7 mph 20.7 mph N/A   Overcast
8:01 PM 30.2 °F 18.5 °F 30.2 °F 100% 29.52 in 2.0 mi NW 17.3 mph 21.9 mph N/A   Overcast
8:41 PM 30.2 °F 19.3 °F 30.2 °F 100% 29.53 in 1.5 mi WNW 15.0 mph 24.2 mph N/A   Overcast
9:01 PM 30.2 °F 18.5 °F 30.2 °F 100% 29.53 in 1.2 mi NW 17.3 mph 23.0 mph N/A   Overcast
9:21 PM 30.2 °F 18.5 °F 30.2 °F 100% 29.54 in 1.0 mi WNW 17.3 mph 24.2 mph N/A   Overcast
9:41 PM 30.2 °F 18.5 °F 30.2 °F 100% 29.54 in 1.2 mi NW 17.3 mph 24.2 mph N/A   Overcast
10:01 PM 30.2 °F 19.3 °F 30.2 °F 100% 29.53 in 1.2 mi WNW 15.0 mph 25.3 mph N/A   Overcast
10:21 PM 30.2 °F 18.1 °F 30.2 °F 100% 29.53 in 1.2 mi NW 18.4 mph 26.5 mph N/A   Overcast
10:41 PM 30.2 °F 18.9 °F 30.2 °F 100% 29.53 in 1.2 mi NW 16.1 mph 26.5 mph N/A   Overcast
11:01 PM 30.2 °F 18.5 °F 30.2 °F 100% 29.52 in 1.8 mi NW 17.3 mph 24.2 mph N/A   Overcast
11:21 PM 30.2 °F 17.8 °F 30.2 °F 100% 29.52 in 2.0 mi WNW 19.6 mph 25.3 mph N/A   Overcast